Погода в Жакмеле

Гаити     18°13′57″N   72°32′18″W
темп.,
°C
ветер,
м/с
пор.,
м/с
влажн.,
%
обл.,
%
осадки,
мм/ч
давл.,
гПа
погр.,
м
23 мая, пн
пн2323:00+24вюв128657 1.9 1019202
02:00+23ю018530 1.9 1017238
05:00+23св11865 0.0 1016119
08:00+24с007922 0.0 1017233
11:00+27ю216696 0.0 1017822
14:00+27ююв336680 0.3 1016893
17:00+27ююв336972 0.5 1014639
20:00+24ю238650 5.1 1015142
24 мая, вт
вт2423:00+24ююв018399 1.6 1016100
02:00+23сз1186100 2.2 101426
05:00+22ссв1188100 0.9 101442
08:00+24св018199 1.2 1016206
11:00+26ю2170100 0.0 1016722
14:00+26ююв2271100 0.5 1015748
17:00+26ююв3375100 1.8 1013537
20:00+24ю238674 7.4 1014119
25 мая, ср
ср2523:00+24ююв018496 2.4 1016143
02:00+23сз118414 4.8 101459
05:00+22ссв118352 0.4 1014118
08:00+24юв01775 0.4 1016247
11:00+27ю22686 0.0 1016744
14:00+27ююв33665 0.3 1015838
17:00+27ююв337121 0.4 1014669
20:00+24ю128514 2.8 101550
26 мая, чт
чт2623:00+23св11845 2.8 1016106
02:00+23св11845 3.9 1015105
05:00+22ссз11825 0.6 101548
08:00+24вюв017681 0.6 1017209
11:00+27ю226574 0.0 1017727
14:00+27ююв346819 0.3 1016861
17:00+26ююв337345 1.8 1015695
20:00+24юв228479 4.6 1016137
27 мая, пт
пт2723:00+23в228520 1.8 1017179
02:00+23св118492 1.9 1015183
05:00+22ссз1184100 0.0 101553
08:00+24вюв0176100 0.0 1017244
11:00+27ююв336698 0.0 1017761
14:00+27ююв346855 0.3 1016813
17:00+26ююв337333 2.7 1015717
20:00+24вюв348574 5.3 1016171